AUA310 LOWW-LQSA

Flight info

Callsign AUA310
Flight time N/A
Altitude 33000
Route STEIN3C/29 STEIN DCT NOHAT DCT KOPRY DCT BOSNA
Aircraft A320/M-SDE3FGHIRWY/LB1

Departure

Time N/A
Airport Vienna International Airport (LOWW)

Arrival

Time 2026-04-24 19:34
Airport Sarajevo International Airport (LQSA)
Time Latitude Longitude Altitude Speed Heading
2026-04-24 18:54 47.72507 16.48328 13638 ft 385 kts 166°
2026-04-24 18:55 47.67275 16.50385 14984 ft 392 kts 166°
2026-04-24 18:55 47.64622 16.51423 15644 ft 396 kts 166°
2026-04-24 18:55 47.61950 16.52469 16275 ft 399 kts 166°
2026-04-24 18:56 47.59249 16.53531 16913 ft 403 kts 165°
2026-04-24 18:56 47.56562 16.54589 17548 ft 406 kts 165°
2026-04-24 18:56 47.53820 16.55666 18185 ft 410 kts 165°
2026-04-24 18:56 47.51047 16.56751 18760 ft 414 kts 165°
2026-04-24 18:57 47.48253 16.57838 19318 ft 417 kts 166°
2026-04-24 18:57 47.45442 16.58927 19895 ft 419 kts 166°
2026-04-24 18:57 47.42583 16.59837 20467 ft 422 kts 173°
2026-04-24 18:57 47.39647 16.60119 21037 ft 424 kts 179°
2026-04-24 18:58 47.36695 16.60243 21619 ft 426 kts 179°
2026-04-24 18:58 47.33721 16.60368 22174 ft 429 kts 179°
2026-04-24 18:58 47.30727 16.60496 22721 ft 431 kts 179°
2026-04-24 18:58 47.27721 16.60630 23236 ft 433 kts 179°
2026-04-24 18:59 47.24696 16.60761 23735 ft 436 kts 179°
2026-04-24 18:59 47.21661 16.60890 24142 ft 438 kts 179°
2026-04-24 18:59 47.18614 16.61016 24632 ft 437 kts 179°
2026-04-24 18:59 47.15566 16.61144 25048 ft 439 kts 179°
2026-04-24 19:00 47.12504 16.61281 25434 ft 442 kts 179°
2026-04-24 19:00 47.09419 16.61422 25796 ft 444 kts 179°
2026-04-24 19:00 47.06324 16.61563 26158 ft 447 kts 179°
2026-04-24 19:00 47.03202 16.61702 26516 ft 450 kts 179°
2026-04-24 19:01 47.00105 16.61836 26856 ft 453 kts 179°
2026-04-24 19:01 46.96940 16.61968 27145 ft 457 kts 179°
2026-04-24 19:01 46.93754 16.62101 27471 ft 460 kts 179°
2026-04-24 19:01 46.90546 16.62237 27801 ft 462 kts 179°
2026-04-24 19:02 46.88370 16.62331 28019 ft 464 kts 178°
2026-04-24 19:02 46.84082 16.62557 28430 ft 467 kts 175°
2026-04-24 19:02 46.80858 16.63254 28734 ft 469 kts 167°
2026-04-24 19:02 46.77730 16.64635 29052 ft 470 kts 158°
2026-04-24 19:03 46.74700 16.66452 29384 ft 471 kts 156°
2026-04-24 19:03 46.71665 16.68274 29683 ft 473 kts 156°
2026-04-24 19:03 46.68619 16.70089 29958 ft 474 kts 156°
2026-04-24 19:03 46.65557 16.71901 30203 ft 476 kts 157°
2026-04-24 19:04 46.62480 16.73715 30418 ft 477 kts 157°
2026-04-24 19:04 46.59405 16.75522 30713 ft 476 kts 156°
2026-04-24 19:04 46.56335 16.77329 31001 ft 476 kts 156°
2026-04-24 19:04 46.53266 16.79141 31295 ft 476 kts 156°
2026-04-24 19:05 46.50204 16.80947 31580 ft 476 kts 156°
2026-04-24 19:05 46.47141 16.82747 31873 ft 475 kts 156°
2026-04-24 19:05 46.44078 16.84544 32148 ft 475 kts 156°
2026-04-24 19:05 46.41018 16.86338 32437 ft 475 kts 156°
2026-04-24 19:06 46.37959 16.88129 32723 ft 474 kts 156°
2026-04-24 19:06 46.34893 16.89922 32981 ft 474 kts 156°
2026-04-24 19:06 46.31844 16.91703 33038 ft 471 kts 155°
2026-04-24 19:07 46.25827 16.95255 33045 ft 469 kts 156°
2026-04-24 19:07 46.20693 16.97962 33036 ft 469 kts 159°
2026-04-24 19:08 46.13400 17.01132 33034 ft 471 kts 162°
2026-04-24 19:08 46.07084 17.03722 33040 ft 471 kts 161°
2026-04-24 19:09 46.00814 17.06451 33044 ft 470 kts 160°
2026-04-24 19:09 45.94574 17.09230 33045 ft 469 kts 160°
2026-04-24 19:10 45.88328 17.11978 33043 ft 469 kts 161°
2026-04-24 19:10 45.82085 17.14688 33051 ft 468 kts 161°
2026-04-24 19:11 45.75851 17.17373 33054 ft 468 kts 161°
2026-04-24 19:11 45.69614 17.20062 33048 ft 468 kts 161°
2026-04-24 19:12 45.63427 17.22740 33044 ft 467 kts 161°
2026-04-24 19:12 45.57207 17.25422 33046 ft 466 kts 161°
2026-04-24 19:13 45.51996 17.27665 33058 ft 466 kts 161°
2026-04-24 19:13 45.44783 17.30755 32998 ft 465 kts 161°
2026-04-24 19:13 45.41686 17.32081 32259 ft 464 kts 161°
2026-04-24 19:14 45.38591 17.33408 31347 ft 466 kts 161°
2026-04-24 19:14 45.35480 17.34739 30454 ft 467 kts 162°
2026-04-24 19:14 45.32357 17.36069 29465 ft 468 kts 162°
2026-04-24 19:14 45.29245 17.37394 28698 ft 464 kts 162°
2026-04-24 19:15 45.26211 17.38685 27993 ft 460 kts 162°
2026-04-24 19:15 45.23155 17.39982 27296 ft 455 kts 162°
2026-04-24 19:15 45.20139 17.41263 26629 ft 451 kts 162°
2026-04-24 19:15 45.17149 17.42535 25990 ft 446 kts 162°
2026-04-24 19:16 45.11247 17.45031 24734 ft 439 kts 162°
2026-04-24 19:16 45.08331 17.46254 24124 ft 436 kts 162°
2026-04-24 19:16 45.05429 17.47473 23512 ft 433 kts 162°
2026-04-24 19:17 45.03523 17.48274 23082 ft 431 kts 162°
2026-04-24 19:17 45.00666 17.49479 22456 ft 427 kts 162°
2026-04-24 19:17 44.97828 17.50679 21880 ft 423 kts 162°
2026-04-24 19:17 44.95014 17.51871 21321 ft 420 kts 162°
2026-04-24 19:18 44.92227 17.53045 20779 ft 416 kts 162°
2026-04-24 19:18 44.89464 17.54201 20251 ft 413 kts 162°
2026-04-24 19:18 44.86715 17.55351 19735 ft 410 kts 162°
2026-04-24 19:18 44.83988 17.56495 19227 ft 407 kts 162°
2026-04-24 19:19 44.81283 17.57630 18733 ft 404 kts 162°
2026-04-24 19:19 44.78596 17.58753 18234 ft 401 kts 162°
2026-04-24 19:19 44.75925 17.59864 17692 ft 398 kts 162°
2026-04-24 19:19 44.73282 17.60965 17160 ft 395 kts 162°
2026-04-24 19:20 44.70654 17.62058 16635 ft 392 kts 162°
2026-04-24 19:20 44.68044 17.63144 16115 ft 390 kts 162°
2026-04-24 19:20 44.65450 17.64220 15617 ft 387 kts 162°
2026-04-24 19:20 44.62890 17.65351 15117 ft 384 kts 158°
2026-04-24 19:21 44.60410 17.66706 14623 ft 381 kts 157°
2026-04-24 19:21 44.57964 17.68106 14131 ft 379 kts 156°
2026-04-24 19:21 44.55569 17.69511 13630 ft 377 kts 156°
2026-04-24 19:21 44.53161 17.70933 13081 ft 374 kts 156°
2026-04-24 19:22 44.50788 17.72327 12790 ft 365 kts 156°
2026-04-24 19:22 44.48477 17.73675 12533 ft 355 kts 156°
2026-04-24 19:22 44.46220 17.74983 12273 ft 346 kts 156°
2026-04-24 19:22 44.44022 17.76249 12025 ft 338 kts 156°
2026-04-24 19:23 44.41867 17.77484 11774 ft 331 kts 156°
2026-04-24 19:23 44.39753 17.78693 11528 ft 324 kts 156°
2026-04-24 19:23 44.37682 17.79878 11273 ft 319 kts 156°
2026-04-24 19:23 44.35640 17.81052 10951 ft 316 kts 156°
2026-04-24 19:24 44.33616 17.82215 10641 ft 314 kts 156°
2026-04-24 19:24 44.31604 17.83368 10335 ft 312 kts 156°
2026-04-24 19:24 44.29607 17.84514 10019 ft 309 kts 156°
2026-04-24 19:24 44.27620 17.85656 9677 ft 307 kts 156°
2026-04-24 19:25 44.25655 17.86785 9339 ft 304 kts 156°
2026-04-24 19:25 44.23706 17.87901 8996 ft 300 kts 156°
2026-04-24 19:25 44.21788 17.88996 8663 ft 297 kts 157°
2026-04-24 19:25 44.19890 17.90076 8328 ft 293 kts 157°
2026-04-24 19:26 44.18017 17.91142 8053 ft 288 kts 157°
2026-04-24 19:26 44.16185 17.92186 7798 ft 281 kts 157°
2026-04-24 19:26 44.14395 17.93206 7546 ft 275 kts 157°
2026-04-24 19:26 44.12645 17.94201 7309 ft 269 kts 157°
2026-04-24 19:27 44.10930 17.95175 7059 ft 264 kts 157°
2026-04-24 19:27 44.09270 17.96117 6814 ft 259 kts 157°
2026-04-24 19:27 44.07624 17.97052 6573 ft 253 kts 157°
2026-04-24 19:27 44.06006 17.97972 6321 ft 250 kts 157°
2026-04-24 19:28 44.04402 17.98881 6087 ft 248 kts 157°
2026-04-24 19:28 44.02798 17.99790 6007 ft 248 kts 158°
2026-04-24 19:28 44.01197 18.00698 6010 ft 248 kts 157°
2026-04-24 19:28 43.99595 18.01610 6010 ft 250 kts 157°
2026-04-24 19:29 43.96415 18.03412 5678 ft 240 kts 157°
2026-04-24 19:29 43.94881 18.04278 5466 ft 235 kts 158°
2026-04-24 19:29 43.93430 18.05306 5406 ft 234 kts 141°
2026-04-24 19:30 43.92289 18.06889 5315 ft 230 kts 122°
2026-04-24 19:30 43.91542 18.08782 5163 ft 219 kts 114°
2026-04-24 19:30 43.90856 18.10626 5075 ft 208 kts 115°
2026-04-24 19:30 43.90215 18.12346 4921 ft 197 kts 115°
2026-04-24 19:31 43.89603 18.13993 4656 ft 193 kts 116°
2026-04-24 19:31 43.88994 18.15632 4382 ft 190 kts 116°
2026-04-24 19:31 43.88393 18.17246 4113 ft 187 kts 117°
2026-04-24 19:31 43.87801 18.18836 3852 ft 184 kts 117°
2026-04-24 19:32 43.87217 18.20404 3594 ft 182 kts 116°
2026-04-24 19:32 43.86648 18.21930 3339 ft 173 kts 117°
2026-04-24 19:32 43.86121 18.23343 3123 ft 157 kts 116°
2026-04-24 19:32 43.85638 18.24636 2902 ft 146 kts 116°
2026-04-24 19:33 43.85168 18.25857 2659 ft 142 kts 117°
2026-04-24 19:33 43.84705 18.27051 2451 ft 139 kts 116°
2026-04-24 19:33 43.84285 18.28262 2297 ft 139 kts 115°
2026-04-24 19:33 43.83843 18.29454 2087 ft 139 kts 117°
2026-04-24 19:34 43.83395 18.30638 1898 ft 139 kts 116°
2026-04-24 19:34 43.82956 18.31823 1708 ft 138 kts 116°
2026-04-24 19:34 43.82547 18.32914 1671 ft 108 kts 117°
2026-04-24 19:34 43.82301 18.33571 1681 ft 27 kts 117°
2026-04-24 19:35 43.82278 18.33655 1688 ft 5 kts 82°
2026-04-24 19:35 43.82295 18.33676 1689 ft 4 kts 23°
2026-04-24 19:35 43.82349 18.33664 1689 ft 11 kts 347°
2026-04-24 19:35 43.82428 18.33638 1687 ft 12 kts 346°
2026-04-24 19:36 43.82472 18.33597 1682 ft 8 kts 319°
2026-04-24 19:36 43.82519 18.33608 1684 ft 7 kts 26°
2026-04-24 19:36 43.82534 18.33618 1681 ft 0 kts 27°